TimeCDT,TemperatureF,Dew PointF,Humidity,Sea Level PressureIn,VisibilityMPH,Wind Direction,Wind SpeedMPH,Gust SpeedMPH,PrecipitationIn,Events,Conditions,WindDirDegrees,DateUTC
12:54 AM,71.1,68.0,90,30.06,6.0,South,3.5,-,N/A,,Clear,170,2013-09-19 05:54:00
1:54 AM,71.1,68.0,90,30.05,5.0,Calm,Calm,-,N/A,,Clear,0,2013-09-19 06:54:00
2:54 AM,70.0,68.0,93,30.05,5.0,South,4.6,-,N/A,,Clear,190,2013-09-19 07:54:00
3:54 AM,70.0,68.0,93,30.05,5.0,South,4.6,-,N/A,,Clear,190,2013-09-19 08:54:00
4:54 AM,70.0,68.0,93,30.05,4.0,South,4.6,-,N/A,,Clear,170,2013-09-19 09:54:00
5:54 AM,70.0,66.9,90,30.06,4.0,Calm,Calm,-,N/A,,Clear,0,2013-09-19 10:54:00
6:54 AM,69.1,66.9,93,30.06,3.0,South,3.5,-,N/A,,Clear,180,2013-09-19 11:54:00
7:54 AM,71.1,68.0,90,30.06,5.0,SSW,5.8,-,N/A,,Clear,200,2013-09-19 12:54:00
8:54 AM,73.9,68.0,82,30.07,7.0,SSW,10.4,-,N/A,,Clear,210,2013-09-19 13:54:00
9:54 AM,77.0,69.1,76,30.07,6.0,SSW,10.4,-,N/A,,Clear,200,2013-09-19 14:54:00
10:54 AM,80.1,70.0,71,30.07,6.0,SSW,11.5,-,N/A,,Clear,210,2013-09-19 15:54:00
11:54 AM,82.0,71.1,69,30.06,10.0,SW,6.9,-,N/A,,Mostly Cloudy,230,2013-09-19 16:54:00
12:25 PM,84.2,71.6,66,30.06,10.0,SSW,6.9,-,N/A,,Mostly Cloudy,210,2013-09-19 17:25:00
12:54 PM,84.9,71.1,63,30.04,10.0,SSW,11.5,17.3,N/A,,Mostly Cloudy,200,2013-09-19 17:54:00
1:54 PM,86.0,71.1,61,30.02,10.0,SSW,11.5,-,N/A,,Mostly Cloudy,210,2013-09-19 18:54:00
2:54 PM,87.1,71.1,59,29.99,10.0,SW,10.4,-,N/A,,Partly Cloudy,220,2013-09-19 19:54:00
3:54 PM,87.1,70.0,57,29.99,10.0,South,11.5,-,N/A,,Scattered Clouds,190,2013-09-19 20:54:00
4:54 PM,87.1,70.0,57,29.98,10.0,South,10.4,-,N/A,,Scattered Clouds,190,2013-09-19 21:54:00
5:54 PM,84.0,69.1,61,29.96,10.0,South,9.2,-,N/A,,Clear,190,2013-09-19 22:54:00
6:54 PM,82.0,70.0,67,29.95,10.0,South,5.8,-,N/A,,Clear,170,2013-09-19 23:54:00
7:54 PM,79.0,70.0,74,29.97,10.0,South,6.9,-,N/A,,Clear,190,2013-09-20 00:54:00
8:54 PM,78.1,70.0,76,29.98,10.0,South,4.6,-,N/A,,Clear,180,2013-09-20 01:54:00
9:54 PM,77.0,70.0,79,29.98,10.0,South,6.9,-,N/A,,Clear,190,2013-09-20 02:54:00
10:54 PM,75.9,69.1,79,29.99,10.0,SSW,5.8,-,N/A,,Clear,200,2013-09-20 03:54:00
11:54 PM,75.0,69.1,82,29.97,10.0,South,4.6,-,N/A,,Clear,190,2013-09-20 04:54:00